Powrót do katalogu

BLOCK DM-SL R/B

AktywnyGTO
NORAD 39774·ROCKET BODY· XX

Wystrzelony May 26, 2014 z Sea Launch Platform

Loading…

TLE

Starzejące sięSource: Space-Track

Epoka: Sep 14, 2026, 07:32 UTC

1 39774U 14030B   26257.31450480  .00000217  00000-0  73233-3 0  9996
2 39774   0.2106  19.4575 7203433 211.0609  40.2535  2.30242049103002

Śledź BLOCK DM-SL R/B w czasie rzeczywistym z AllMySat

Download on the App Store